GalileoSat-14

operational
NORAD ID: 41549 Int'l Des: 2016-030 Owner: GSAEU Country: I-EU Constellation: Galileo
MEOCIRCULAR

About GalileoSat-14

Description loading...

Live Position

Loading 3D Globe...

Upcoming Passes

Altitude History

Altitude vs Time

uPlot chart will show altitude changes over time

Two-Line Element Set

1 41549U 16030A 25297.57593385 .00000000 00000-0 00000+0 0 9992
2 41549 55.1724 228.1754 0003558 347.5730 12.4279 1.70473023 58654
Epoch: Oct 24, 2025 • Age: 23 hours

Current Status

Altitude 23241.2 km
Velocity 3.67 km/s
Sub-Earth Point -43.64°S, 142.22°W
Launch Date May 24, 2016
Age 9.4 years
Type navigation

Technical Details

Classification Payload
Mass 733.00 kg
Dry Mass 660.00 kg
Total Mass 733.00 kg
Length 2.70 m
Diameter 1.60 m
Span 14.50 m
Shape Box+2 pan
Manufacturer OHB
Bus Type GalileoSat
Phase Status In Orbit
Owner/State GSAEU/I-EU

Large Constellations

Loading constellations...